Simultaneous Nadir Overpasses (SNOs) Predictions

Prediction of SNOs between AURA and NPP Satellite Orbit:

Table of predicted SNOs for the next 14.0 days since TLE Epoch: 9/22/2017
Index Date (AURA) Time (AURA) Lat,Lon (AURA) SZA (AURA ) Date (NPP) Time (NPP) Lat,Lon (NPP) SZA (NPP ) Distance(km) Time Diff (sec)
1 09/24/2017 10:35:26 -79.12, 95.43 86.81 09/24/2017 10:34:36 -79.12, 95.45 86.77 0.41 50
2 09/24/2017 11:24:46 79.36, -95.42 92.89 09/24/2017 11:25:14 79.35, -95.53 92.89 2.46 28
3 09/27/2017 02:51:55 -79.19,-148.27 85.92 09/27/2017 02:51:31 -79.18,-148.32 85.89 1.36 24
4 09/27/2017 03:41:12 79.53, 21.67 93.62 09/27/2017 03:42:05 79.54, 21.79 93.56 2.67 53
5 09/29/2017 18:20:17 75.58, 144.84 99.30 09/29/2017 18:19:04 75.75, 143.66 99.55 37.87 73
6 09/29/2017 19:08:23 -79.25, -31.99 85.02 09/29/2017 19:08:25 -79.24, -32.10 85.00 2.41 2
7 10/02/2017 10:35:29 79.14, -84.47 96.10 10/02/2017 10:34:39 79.15, -84.35 96.12 2.84 50
8 10/02/2017 11:24:51 -79.35, 84.50 84.17 10/02/2017 11:25:19 -79.34, 84.38 84.17 2.84 28
9 10/05/2017 02:52:00 79.11, 31.22 97.12 10/05/2017 02:51:37 79.10, 31.08 97.17 3.10 23




NCC Satellite Simultaneous Nadir Overpasses (SNOs) Prediction Service
